User: anonymous   Login
Location: Demmingen
(48.6757°N, 10.4375°E)
Time: 21:24:58
(UTC+00:00)
Language:

CZ-2C R/B - Orbit

View from above orbital plane
View from above orbital plane
View from above satellite
View from above satellite

Ground track
Ground track

The orbit data is extracted from the following two-line orbital elements,

1 28480U 04046B   24205.56592252  .00000615  00000-0  24491-3 0  9990
2 28480  98.1630 147.3534 0141702 111.5507 250.0845 14.26409962 23780
Epoch (UTC): 23 July 2024 13:34:55
Eccentricity: 0.0141702
inclination: 98.1630°
perigee height: 702 km
apogee height: 905 km
right ascension of ascending node: 147.3534°
argument of perigee: 111.5507°
revolutions per day: 14.26409962
mean anomaly at epoch: 250.0845°
orbit number at epoch: 2378

The dashed part of the orbit path shows where the satellite is in the earth's shadow,  

DLR